Regional Weather Roundup
Issued by NWS Albany, NY

Home | Current Version | Previous Version | Text Only | Print | Product List | Glossary On
Versions: 1 2 3 4 5 6 7 8 9 10 11 12 13 14 15 16 17 18 19 20 21 22 23 24 25 26 27 28
000
ASUS41 KALY 171110
RWRALY

NEW YORK STATE HOURLY WEATHER ROUNDUP
NATIONAL WEATHER SERVICE ALBANY NY
600 AM EST WED JAN 17 2018

NOTE: "FAIR" INDICATES FEW OR NO CLOUDS BELOW 12,000 FEET WITH NO
SIGNIFICANT WEATHER AND/OR NO OBSTRUCTIONS TO VISIBILITY.

NYZ032-033-038>043-046>054-057>066-NYZ062>081-082-084-171200-
EAST


CITY           SKY/WX    TMP DP  RH WIND       PRES   REMARKS
ALBANY         LGT SNOW  26  22  84 NW5       30.32S FOG     WCI  20
GLENS FALLS    CLOUDY    23  23 100 N3        30.32S FOG
POUGHKEEPSIE   LGT SNOW  28  26  92 NW3       30.28S FOG
MONTGOMERY     LGT SNOW  29  27  92 N3        30.26S FOG
WHITE PLAINS   LGT RAIN  35  34  96 NE5       30.23S VSB 1   WCI  31
ISLIP          LGT RAIN  39  38  96 N3        30.25R FOG
NEW YORK CITY  LGT RAIN  35  34  96 N7        30.25S WCI  29
CENTRAL PARK   CLOUDY    35  34  96 N6        30.27S FOG     WCI  30
$$

NYZ005>009-017-018-044>046-055-056-171200-
CENTRAL


CITY           SKY/WX    TMP DP  RH WIND       PRES   REMARKS
FULTON         LGT SNOW  18  13  80 W12       30.38R WCI   5
SYRACUSE       FLURRIES  17  14  88 W10       30.38R WCI   5
ROME           CLOUDY    22  21  96 W7        30.35R WCI  13
ELMIRA         CLOUDY    18  11  74 W13       30.35R WCI   5
BINGHAMTON     LGT SNOW  20  19  96 NW12      30.24R VSB 1   WCI   8
MONTICELLO     LGT SNOW  26  25  96 W3        30.23S FOG
$$

NYZ026>034-041>043-087-171200-
NORTH


CITY           SKY/WX    TMP DP  RH WIND       PRES   REMARKS
WATERTOWN      LGT SNOW  15  13  91 CALM      30.37R FOG
FORT DRUM      NOT AVBL
OGDENSBURG     FLURRIES  13  11  92 CALM      30.35S
MASSENA        CLOUDY    11   8  88 CALM      30.37S
SARANAC LAKE   CLOUDY     9   6  88 CALM      30.23R
PLATTSBURGH    CLOUDY    13  10  88 N3        30.37S FOG
$$

NYZ001>004-010>016-019>021-085-171200-
WEST


CITY           SKY/WX    TMP DP  RH WIND       PRES   REMARKS
NIAGARA FALLS  CLOUDY    17   9  70 SW16      30.38R WCI   2
BUFFALO        LGT SNOW  12   9  87 SW14      30.39R FOG     WCI  -3
DUNKIRK        CLOUDY     9   3  77 S12       30.42S WCI  -6
JAMESTOWN      MOCLDY     1  -2  87 SW10      30.33S WCI -15
WELLSVILLE     FAIR       7   2  80 W12       30.28R WCI  -8
ROCHESTER      FAIR      12   5  73 SW15      30.40R WCI  -4
PENN YAN       LGT SNOW  14   5  67 SW12      30.36R WCI   0
$$

             KEY
       WCI = WIND CHILL INDEX
       VSB = VISIBILITY
       HX  = HEAT INDEX
$$




USA.gov is the U.S. government's official web portal to all federal, state and local government web resources and services.